Location: Goettingen
(51.5300°N, 9.9433°E)
Time: 09:05:06
(UTC+01:00)

ISS - Pass Details

Date: 09 December 2018
Orbit: 401 x 408 km, 51.6° (Epoch: 12 December)

Event Time Altitude Azimuth Distance (km) Brightness Sun altitude
Rises 18:19:29 0° 284° (WNW) 2,320 1.1 -18.7°
Reaches altitude 10° 18:21:41 10° 274° (W) 1,457 0.1 -19.1°
Maximum altitude 18:24:40 33° 208° (SSW) 700 -2.3 -19.5°
Enters shadow 18:25:51 24° 166° (SSE) 868 -2.2 -19.7°
